Flag for Canada Weather past 2 weeks in Prince Albert, Saskatchewan, Canada

14 °F

Passing clouds.

Feels Like: 3 °F
Forecast: 8 / 22 °F
Wind: 8 mph from Southwest

Location: Prince Albert

Current Time: Nov 28, 2015 at 11:48:30 PM

Latest Report: Nov 28, 2015 at 11:00 PM

Visibility: 15 mi

Pressure: 30.23 "Hg

Humidity: 79%

Dew point: 9 °F

Location of Prince AlbertLocation

Historic Weather in Prince Albert — Graph


Prince Albert temperature yesterday

Maximum temperature yesterday: 30 °F (at 3:00 PM)
Minimum temperature yesterday: 9 °F (at 12:00 AM)
Average temperature yesterday: 19 °F

Past Weeks' High & Low Weather Summary

High45 °F (Nov 14, 2:00 PM)100% (Nov 17, 5:00 AM)30.63 "Hg (Nov 17, 5:00 AM)
Low-2 °F (Nov 26, 8:00 AM)42% (Nov 14, 2:00 PM)29.07 "Hg (Nov 18, 3:00 AM)
Average22 °F80%29.96 "Hg
* Reported Nov 13 10:00 PM — Nov 28 10:00 PM, Prince Albert, Weather by CustomWeather, © 2015

Note: Actual official high and low records may vary slightly from our data, if they occured in-between our weather recording intervals... More about our weather records


Prince Albert weather history for previous 24 hours

Time TempWeatherWind HumidityBarometerVisibility
10:00 PM
Sat, Nov 28
14 °FPassing clouds.6 mph79%30.23 "Hg15 mi
9:00 PM10 °FPassing clouds.7 mph79%30.26 "Hg15 mi
8:00 PM14 °FPassing clouds.3 mph85%30.27 "Hg15 mi
7:00 PM18 °FPassing clouds.2 mph73%30.27 "Hg15 mi
6:00 PM19 °FPassing clouds.7 mph73%30.27 "Hg15 mi
5:00 PM23 °FPassing clouds.5 mph68%30.27 "Hg15 mi
4:00 PM25 °FPassing clouds.No wind63%30.27 "Hg15 mi
3:00 PM27 °FPassing clouds.5 mph64%30.27 "Hg15 mi
2:00 PM25 °FPassing clouds.6 mph63%30.27 "Hg15 mi
1:00 PM23 °FScattered clouds.5 mph68%30.30 "Hg15 mi
12:00 PM18 °FPassing clouds.No wind79%30.32 "Hg15 mi
11:00 AM14 °FScattered clouds.2 mph92%30.34 "Hg15 mi
10:00 AM10 °FScattered clouds.No wind92%30.33 "Hg15 mi
9:00 AM9 °FPassing clouds.3 mph85%30.32 "Hg15 mi
8:00 AM7 °FClear.2 mph85%30.33 "Hg15 mi
7:00 AM5 °FClear.No wind85%30.33 "Hg15 mi
6:00 AM9 °FClear.2 mph92%30.33 "Hg15 mi
5:00 AM7 °FClear.5 mph85%30.33 "Hg15 mi
4:00 AM9 °FClear.3 mph92%30.32 "Hg15 mi
3:00 AM9 °FClear.3 mph85%30.32 "Hg15 mi
2:00 AM9 °FClear.No wind85%30.30 "Hg15 mi
12:00 AM12 °FClear.No wind92%30.28 "Hg15 mi
11:00 PM
Fri, Nov 27
12 °FClear.8 mph85%30.26 "Hg15 mi
Weather by CustomWeather, © 2015

See weather overviewHow to use our weather pages